Wind_Speed
37 49 60 67 71 76 80 84 82 87 87 92 98 102 102 100 99 100 98 95 97 98 98 98 97 97 96 95 96 95 92 87 81 74 73 72 63 57 62 62 62 56 47 50
30 44 61 70 76 77 78 82 81 84 84 88 96 98 99 99 96 97 96 95 95 97 98 99 95 96 97 96 95 97 94 91 88 82 77 73 70 67 63 63 60 59 64 54
28 43 58 69 76 79 79 82 82 80 80 87 94 98 97 95 95 95 95 94 92 93 95 97 93 95 95 96 95 96 96 90 89 86 82 72 70 70 68 68 65 61 59 59
23 36 51 66 74 76 77 82 84 82 81 85 90 92 96 98 94 94 95 93 91 91 94 94 92 99 94 95 96 94 94 91 69 81 85 84 79 76 74 71 69 61 65 62
17 29 46 61 68 71 75 78 79 77 82 87 89 94 96 95 92 92 93 93 91 90 92 92 92 98 98 95 95 98 96 94 90 77 81 90 85 82 76 74 76 72 71 71
15 25 40 53 60 68 74 78 78 81 84 85 87 87 93 89 89 91 89 90 91 91 91 90 89 94 95 96 97 96 97 96 96 94 85 89 93 90 87 76 72 74 76 76
14 19 36 50 59 68 74 77 78 82 82 80 82 85 88 85 88 87 89 89 88 89 90 87 85 89 92 95 98 96 95 97 98 99 94 92 92 94 97 86 77 72 76 78
11 18 30 45 50 61 69 73 75 78 74 73 75 77 82 86 88 87 88 88 88 88 89 86 86 87 89 91 95 98 96 96 98 100 97 94 96 100 99 98 98 93 91 82
10 18 27 36 44 57 67 70 70 71 70 72 73 75 80 80 84 88 88 87 88 87 87 86 85 86 85 88 91 95 97 97 97 99 99 98 96 102 103 103 102 102 104 103
9 17 24 35 47 59 64 67 68 68 67 71 71 75 75 78 82 83 84 87 90 88 88 86 84 85 87 88 88 91 95 96 96 98 100 99 100 98 102 106 106 104 106 104
7 15 20 32 42 49 55 57 59 60 64 69 72 74 73 77 78 78 81 86 87 86 86 86 85 85 85 86 87 89 90 96 97 97 100 101 102 102 101 105 109 110 109 108
4 12 17 24 35 45 53 54 55 59 63 68 71 69 72 74 73 75 79 80 79 79 79 81 83 85 86 86 86 87 88 92 96 99 100 104 103 103 106 105 104 108 113 113
7 9 16 20 32 45 50 51 54 59 63 65 68 70 72 73 73 73 74 75 74 73 73 74 77 80 84 87 88 89 90 91 94 98 100 100 101 104 105 105 104 104 105 107
8 9 19 25 31 39 45 51 55 58 62 65 68 70 72 72 72 71 71 71 67 68 70 72 74 76 78 81 86 90 92 93 95 97 99 100 101 103 103 105 106 108 107 105
10 8 21 32 35 39 44 49 53 57 61 64 67 67 66 67 68 68 70 67 65 68 69 70 71 74 76 78 80 83 88 94 96 97 97 98 99 101 102 104 105 106 107 107
9 6 18 28 40 45 46 48 51 54 57 61 64 67 66 66 64 63 63 64 63 66 67 69 69 71 73 74 75 77 79 84 88 91 95 99 100 100 101 102 105 107 108 108
8 7 11 20 31 37 40 46 49 51 55 59 63 63 61 62 64 64 64 64 63 63 64 65 67 70 72 72 74 75 76 76 78 80 84 88 92 96 100 103 105 106 106 107
10 7 10 20 21 31 37 41 45 49 52 56 58 59 61 62 63 64 63 62 62 63 65 64 67 70 71 72 71 73 74 74 74 75 76 78 82 84 87 90 93 93 95 97
14 11 11 16 20 26 31 38 42 46 50 53 55 55 55 56 60 61 59 60 60 62 64 65 68 70 70 70 69 70 71 71 71 71 73 73 75 76 78 80 83 84 85 86
15 14 14 16 17 24 32 36 38 43 45 48 50 51 52 53 54 54 57 59 60 62 63 64 67 65 65 66 66 67 67 68 68 69 69 68 69 70 71 73 75 76 77 78
23 15 17 17 19 22 27 32 38 41 45 47 48 49 50 52 53 54 55 57 58 59 60 61 60 58 58 56 57 60 62 63 64 64 63 63 62 63 63 66 68 68 69 71
31 20 17 19 21 23 25 28 30 36 42 42 44 47 49 51 52 52 53 53 52 52 51 50 50 47 48 50 52 54 56 57 58 59 59 59 59 60 60 60 61 63 65 66
36 23 20 20 22 25 26 27 28 31 36 39 40 41 42 43 45 47 48 48 46 45 45 46 45 46 45 45 46 48 49 50 51 52 53 53 55 56 58 60 60 61 61 63
38 26 22 23 23 25 26 29 31 31 31 32 33 36 38 40 41 43 43 44 46 44 42 41 41 42 42 42 42 42 42 44 43 43 44 46 46 47 49 53 54 54 55 55
46 29 24 23 26 27 28 29 30 31 33 34 32 33 34 34 34 34 33 34 34 36 36 38 39 40 41 41 42 43 42 41 42 40 41 41 42 42 42 44 45 47 47 49
56 35 25 26 28 30 31 32 32 32 31 33 34 35 35 34 35 36 37 38 38 37 38 39 39 39 40 40 41 41 42 42 39 39 39 40 40 40 40 40 41 42 44 44
Wind_Direction
226 222 221 218 215 213 211 214 213 215 216 215 216 220 223 225 224 225 224 224 224 225 225 226 228 229 231 232 234 235 235 236 236 237 237 239 242 247 252 252 249 246 256 269
224 215 213 214 213 213 209 212 215 214 212 214 216 219 222 224 225 226 225 225 225 225 226 227 228 230 230 232 232 234 235 236 237 237 237 239 242 245 246 250 254 256 249 247
224 213 211 212 212 211 209 209 213 215 213 214 216 218 221 223 224 226 227 227 226 226 227 228 229 231 231 232 233 233 234 235 238 239 236 237 238 241 246 250 252 252 255 255
231 213 210 211 212 210 208 209 211 212 212 214 216 219 220 222 223 224 227 228 227 226 227 228 227 232 231 232 233 234 236 235 234 239 235 236 238 240 241 245 249 250 251 253
227 214 208 211 211 208 206 210 212 212 212 214 216 217 219 223 223 225 226 227 227 227 227 228 227 231 231 231 233 233 234 234 232 231 233 234 238 239 242 244 245 247 249 250
215 208 210 209 206 204 204 206 208 211 212 213 216 216 220 222 224 225 227 229 229 229 229 229 228 230 232 232 233 233 235 235 235 234 233 233 234 238 239 242 243 247 248 247
204 204 205 203 203 202 203 205 206 209 212 212 214 216 220 221 225 226 227 229 229 230 230 230 229 230 231 232 234 235 235 236 236 236 234 234 235 236 237 238 240 244 245 245
212 196 204 204 202 200 202 206 206 209 210 212 214 216 220 221 224 227 228 229 229 230 231 230 229 229 230 232 233 236 236 236 238 239 238 238 237 238 238 240 240 244 247 246
213 191 200 199 195 199 202 205 207 209 209 211 213 214 220 222 224 227 228 229 231 231 232 231 229 231 231 233 234 235 236 238 238 240 240 239 239 238 240 240 241 244 248 248
213 193 196 194 195 200 202 203 204 206 206 209 212 215 218 220 223 227 230 231 232 231 232 232 232 232 233 233 234 235 236 238 239 240 241 241 242 242 241 241 242 245 247 250
229 196 197 202 202 201 201 203 205 206 206 209 212 215 217 221 223 225 228 231 233 233 234 235 234 234 234 235 236 236 235 237 239 239 240 241 242 242 243 243 243 244 246 249
257 196 192 201 200 197 200 200 203 204 206 209 214 215 218 222 223 226 229 233 235 235 235 237 239 236 237 236 236 238 238 237 239 240 240 241 243 244 244 245 246 246 247 250
317 208 178 188 195 197 199 198 201 204 208 210 213 214 218 222 224 226 230 233 236 238 239 239 239 240 238 237 237 237 239 238 238 240 242 243 244 245 246 247 249 249 249 251
323 223 178 173 192 198 198 200 202 204 207 209 214 215 219 222 225 227 231 234 236 238 239 239 240 240 241 241 239 237 238 240 241 242 243 244 245 246 247 249 249 251 252 253
338 248 194 180 187 199 202 202 204 207 209 211 216 218 220 223 225 228 231 233 235 239 241 242 242 243 243 243 243 242 241 241 242 244 246 247 247 249 249 250 251 253 254 254
342 292 222 205 199 204 205 206 209 210 211 216 218 220 221 224 229 231 233 234 234 237 240 242 245 245 246 247 247 246 246 246 245 245 246 247 249 250 249 250 251 252 254 255
340 310 259 225 217 218 215 212 213 215 217 218 220 222 223 224 227 230 231 234 235 238 240 242 244 246 247 248 249 250 251 250 250 250 249 249 249 250 251 252 252 254 254 255
331 297 266 245 244 226 223 220 218 218 220 222 225 226 226 226 228 232 235 236 238 239 241 241 244 246 247 249 251 252 253 254 254 254 254 254 254 254 254 255 255 256 256 257
320 296 260 247 247 237 236 230 226 224 226 228 230 232 233 232 232 234 234 236 237 240 242 242 243 246 249 251 252 254 255 256 256 256 256 255 255 255 255 256 256 257 257 257
315 288 270 255 242 239 235 234 234 231 229 231 234 235 236 237 238 237 236 237 239 241 243 245 246 248 250 252 253 255 256 258 259 258 258 256 254 254 254 255 256 256 257 257
326 289 266 259 248 236 234 232 232 233 232 233 234 235 236 238 240 241 242 242 242 245 247 250 253 253 253 253 253 254 255 256 257 258 258 258 257 255 254 254 253 254 256 256
339 301 273 250 248 243 238 235 236 236 239 240 240 240 242 244 244 246 247 250 250 251 252 255 257 256 255 254 253 252 253 254 255 256 257 257 255 254 253 252 251 251 252 253
339 311 281 254 242 246 242 237 233 234 237 241 244 245 247 249 251 252 253 254 256 257 257 256 257 255 253 251 252 253 254 254 255 257 259 260 259 258 257 255 254 253 253 254
338 316 287 269 251 241 238 240 235 234 234 237 238 239 241 244 247 250 254 255 256 256 254 251 249 248 247 247 248 250 251 251 253 255 259 257 259 260 260 260 260 260 259 260
342 320 293 272 260 249 244 241 240 238 234 233 234 235 236 237 238 238 239 240 240 241 242 243 243 244 246 247 248 249 249 251 250 252 256 256 257 258 258 259 257 259 260 260
347 325 294 270 261 254 247 245 246 244 243 241 238 236 234 233 233 233 234 237 238 241 244 246 247 247 247 247 248 249 249 247 248 247 250 251 252 254 254 255 256 255 255 255
Height
10380 10387 10400 10412 10423 10431 10449 10459 10475 10488 10505 10520 10533 10540 10554 10571 10586 10595 10613 10629 10642 10654 10661 10670 10680 10691 10700 10711 10721 10730 10739 10747 10759 10768 10778 10784 10788 10792 10794 10796 10799 10802 10806 10810
10369 10375 10381 10394 10407 10423 10440 10451 10466 10475 10494 10509 10519 10530 10544 10557 10575 10586 10600 10614 10627 10639 10648 10656 10668 10677 10688 10697 10707 10714 10724 10736 10745 10755 10763 10772 10777 10781 10785 10786 10788 10792 10795 10795
10358 10362 10370 10380 10395 10411 10429 10442 10454 10472 10490 10496 10506 10516 10532 10547 10561 10575 10589 10601 10615 10627 10637 10646 10661 10664 10676 10686 10694 10702 10709 10722 10731 10741 10752 10758 10762 10766 10771 10774 10780 10782 10784 10784
10351 10356 10363 10373 10383 10404 10420 10432 10441 10455 10475 10488 10499 10515 10523 10531 10548 10561 10573 10588 10600 10611 10620 10634 10649 10645 10663 10672 10681 10691 10698 10710 10720 10726 10736 10743 10747 10753 10759 10762 10764 10767 10772 10771
10346 10351 10358 10365 10378 10397 10411 10426 10438 10452 10461 10470 10484 10493 10508 10522 10540 10552 10562 10574 10586 10598 10606 10618 10633 10632 10644 10654 10664 10672 10682 10692 10702 10711 10720 10728 10735 10741 10745 10748 10750 10753 10759 10759
10342 10346 10353 10360 10374 10389 10402 10413 10427 10436 10445 10458 10473 10493 10498 10519 10532 10540 10553 10562 10572 10583 10592 10603 10616 10621 10631 10643 10648 10658 10667 10676 10684 10693 10705 10713 10717 10724 10728 10733 10739 10742 10743 10744
10339 10344 10349 10357 10367 10380 10391 10403 10414 10423 10436 10457 10467 10483 10495 10512 10522 10531 10540 10549 10560 10570 10578 10590 10604 10608 10617 10625 10635 10644 10654 10660 10667 10675 10688 10695 10703 10708 10709 10719 10724 10722 10722 10729
10340 10342 10348 10354 10365 10379 10389 10399 10409 10419 10439 10455 10467 10481 10490 10499 10508 10519 10529 10538 10548 10556 10565 10576 10586 10594 10602 10612 10621 10628 10639 10646 10653 10660 10672 10679 10686 10689 10696 10701 10703 10707 10709 10715
10341 10343 10348 10356 10366 10375 10383 10392 10407 10421 10437 10448 10459 10470 10478 10489 10497 10504 10515 10526 10534 10545 10553 10560 10571 10581 10591 10596 10605 10613 10620 10628 10638 10643 10652 10660 10666 10671 10678 10683 10685 10688 10691 10696
10343 10345 10349 10356 10363 10368 10378 10389 10402 10415 10429 10440 10448 10456 10466 10476 10485 10494 10504 10510 10518 10530 10538 10549 10558 10568 10574 10581 10589 10598 10605 10613 10621 10626 10632 10640 10648 10654 10658 10663 10668 10671 10673 10678
10345 10346 10351 10356 10362 10373 10382 10394 10403 10415 10424 10430 10439 10449 10461 10464 10474 10483 10489 10493 10504 10517 10527 10537 10547 10554 10561 10567 10573 10580 10589 10594 10599 10606 10611 10617 10624 10632 10638 10642 10649 10652 10655 10658
10349 10349 10352 10358 10365 10373 10379 10389 10399 10407 10416 10424 10431 10446 10451 10454 10466 10474 10479 10486 10496 10505 10515 10524 10532 10540 10546 10552 10559 10565 10572 10578 10583 10586 10590 10595 10604 10612 10616 10622 10629 10634 10638 10643
10351 10352 10355 10360 10365 10368 10376 10385 10393 10401 10409 10417 10425 10434 10441 10447 10455 10465 10471 10478 10487 10496 10503 10510 10515 10520 10527 10534 10541 10547 10552 10560 10564 10568 10573 10580 10586 10591 10596 10603 10609 10614 10619 10624
10354 10355 10357 10360 10365 10368 10374 10380 10386 10394 10402 10409 10417 10425 10431 10439 10447 10458 10462 10470 10479 10483 10487 10493 10498 10503 10509 10514 10522 10529 10535 10539 10545 10550 10555 10562 10566 10572 10579 10584 10589 10592 10598 10605
10357 10357 10359 10361 10365 10367 10372 10378 10383 10389 10395 10403 10410 10417 10427 10435 10441 10449 10454 10463 10468 10471 10475 10479 10485 10488 10493 10497 10503 10510 10517 10523 10528 10534 10541 10546 10551 10557 10562 10565 10568 10572 10577 10581
10361 10360 10360 10361 10363 10364 10368 10374 10380 10385 10392 10397 10404 10410 10421 10428 10435 10442 10447 10451 10456 10459 10463 10467 10471 10475 10479 10483 10488 10494 10499 10504 10510 10517 10523 10527 10532 10536 10539 10544 10548 10551 10556 10562
10361 10361 10361 10361 10362 10365 10369 10372 10376 10381 10386 10391 10394 10404 10416 10420 10423 10427 10434 10439 10444 10448 10451 10455 10458 10461 10465 10469 10472 10477 10481 10487 10493 10498 10502 10506 10511 10514 10517 10521 10526 10530 10534 10537
10361 10360 10360 10361 10361 10364 10366 10369 10373 10377 10380 10384 10389 10396 10403 10409 10413 10416 10423 10429 10434 10436 10438 10443 10445 10447 10450 10454 10459 10462 10465 10470 10474 10478 10483 10486 10489 10493 10496 10500 10503 10507 10510 10514
10358 10358 10358 10357 10359 10361 10363 10365 10368 10372 10375 10379 10383 10389 10395 10400 10403 10408 10414 10417 10421 10422 10425 10428 10430 10433 10438 10442 10446 10448 10451 10454 10458 10461 10464 10467 10470 10473 10476 10478 10481 10484 10488 10491
10357 10353 10354 10353 10354 10356 10358 10360 10363 10366 10370 10373 10376 10381 10385 10389 10393 10400 10401 10404 10407 10409 10412 10415 10417 10422 10426 10429 10431 10433 10435 10437 10440 10441 10443 10448 10451 10453 10456 10459 10461 10465 10468 10470
10356 10351 10347 10348 10349 10350 10351 10353 10355 10360 10361 10363 10367 10371 10375 10378 10382 10385 10389 10392 10396 10398 10401 10404 10407 10410 10412 10414 10415 10417 10418 10421 10421 10423 10426 10428 10431 10434 10437 10439 10441 10444 10448 10451
10350 10347 10343 10342 10343 10344 10343 10345 10347 10350 10352 10355 10359 10361 10364 10367 10371 10374 10377 10380 10383 10387 10390 10392 10394 10396 10398 10399 10401 10402 10403 10405 10406 10408 10410 10412 10414 10416 10419 10421 10424 10426 10429 10431
10343 10340 10339 10337 10335 10336 10337 10338 10339 10341 10343 10346 10350 10352 10355 10358 10360 10363 10366 10368 10371 10374 10376 10378 10380 10382 10383 10385 10386 10387 10389 10391 10392 10393 10395 10396 10398 10400 10403 10405 10408 10411 10413 10416
10336 10331 10330 10329 10328 10328 10330 10331 10332 10333 10336 10339 10340 10342 10344 10347 10349 10352 10354 10357 10359 10361 10363 10365 10367 10369 10370 10372 10374 10376 10377 10379 10380 10381 10382 10383 10384 10386 10388 10390 10393 10395 10398 10401
10331 10325 10322 10320 10320 10319 10320 10322 10324 10325 10327 10329 10331 10333 10335 10337 10339 10342 10345 10346 10348 10351 10352 10354 10356 10357 10359 10361 10362 10364 10365 10366 10368 10370 10371 10372 10372 10374 10376 10378 10380 10382 10384 10387
10326 10319 10313 10311 10310 10311 10311 10312 10314 10316 10317 10319 10322 10325 10327 10328 10330 10332 10334 10336 10338 10340 10341 10343 10345 10347 10348 10350 10352 10353 10354 10355 10357 10358 10360 10361 10362 10364 10365 10367 10368 10369 10371 10374